[[{"header":{"parameterUnit":"m.s-1","parameterCategory":2,"la1":30.2991,"la2":30.254,"lo1":-89.0895,"lo2":-89.0444,"dy":0.0017,"dx":0.0017,"nx":28,"ny":28,"refTime":"2025-08-15T03:00:00:Z","depth":"0","parameterNumber":2,"parameterNumberName":"U-component_of_CURRENTS"},"data":[0,0,0,0,0,0,0,0,0,0,0,0,0,0,0,0,0,0,0,0,0,0,0,0,0,0,0,0,0,0,0,0,0,0,0,0,0,0,0,0,0,0,0,0,0,0,0,0,0,0,0,0,0,0,0,0,0,0,0.224,0.224,0,0.2183,0.2182,0.2182,0.218,0.2181,0.2182,0.2182,0.2146,0.2144,0.2143,0,0,0,0,0,0,0,0,0,0,0,0,0,0.2308,0.2307,0.224,0.224,0.2239,0.2183,0.2182,0.2181,0.2179,0.2181,0.2182,0.2183,0.2147,0.2145,0.2142,0,0,0,0,0,0,0,0,0,0,0,0,0,0.2265,0.2306,0.224,0.2234,0.2233,0.2184,0.2182,0.2181,0.2179,0.2181,0.2182,0.2183,0.2148,0.2145,0.2142,0.2096,0,0,0.2134,0.2132,0,0,0,0,0,0,0,0,0.2267,0.2262,0.2235,0.2234,0.2233,0.2193,0.2193,0.2155,0.2179,0.2197,0.2182,0.2184,0.2164,0.216,0.2142,0.2095,0.2093,0.2133,0.2132,0.2131,0.213,0,0,0,0,0,0,0,0.227,0.2264,0.2215,0.2235,0.2233,0.222,0.2216,0.2185,0.2171,0.2195,0.2196,0.2193,0.2164,0.2145,0.2141,0.2093,0.2134,0.2131,0.2129,0.2128,0.2047,0.2046,0,0,0,0,0,0,0.2283,0.2267,0.2217,0.2214,0.2257,0.2218,0.2213,0.2202,0.2171,0.2169,0.2192,0.2193,0.2149,0.2145,0.214,0.2101,0.2131,0.2128,0.2126,0.2047,0.2046,0.2046,0,0,0,0,0,0,0.2285,0.2279,0.2219,0.2242,0.2234,0.2216,0.2203,0.22,0.2183,0.2169,0.2167,0.218,0.215,0.2144,0.2111,0.2099,0.2127,0.2124,0.2048,0.2047,0.2046,0.2012,0,0,0,0,0,0,0.2287,0.2279,0.2266,0.2242,0.2233,0.2176,0.2202,0.2198,0.2181,0.2182,0.2157,0.2155,0.215,0.2115,0.2108,0.2096,0.2122,0.2048,0.2047,0.2046,0.2014,0.201,0.2007,0,0,0,0,0,0.2289,0.2255,0.2266,0.226,0.2219,0.2174,0.2167,0.2158,0.2179,0.2152,0.2149,0.2156,0.2105,0.2111,0.2104,0.2091,0.2049,0.2048,0.2047,0.2015,0.2011,0.2007,0,0,0,0,0,0,0.2268,0.2251,0.2263,0.2224,0.2201,0.2175,0.2145,0.2153,0.2128,0.2135,0.2134,0.213,0.2106,0.2098,0.2105,0.2067,0.2084,0.2081,0.2063,0.2058,0.2055,0.206,0.212,0,0,0,0,0,0.2262,0.2233,0.2222,0.2187,0.2176,0.2165,0.2147,0.2146,0.2127,0.2117,0.2105,0.2099,0.2091,0.2075,0.2063,0.2023,0.2052,0.2016,0.2012,0.2009,0.201,0.2049,0.205,0.2042,0.2042,0.2042,0,0,0.2244,0.223,0.2214,0.2181,0.2162,0.2127,0.2155,0.2121,0.2099,0.2116,0.2073,0.2084,0.2081,0.205,0.2038,0.204,0.2027,0.2008,0.2005,0.2008,0.2048,0.2049,0.205,0.2041,0.2042,0.2042,0,0,0.2181,0.2181,0.2137,0.2118,0.2095,0.2089,0.2083,0.206,0.2056,0.202,0.2046,0.205,0.2008,0.2017,0.2016,0.1983,0.2015,0.198,0.1953,0.1991,0.1992,0.1994,0.2033,0.2038,0.1969,0.1969,0.1969,0,0.2166,0.2113,0.2114,0.207,0.2055,0.2073,0.2032,0.2019,0.1991,0.1995,0.2001,0.1997,0.1996,0.199,0.1983,0.1976,0.2004,0.1967,0.1988,0.199,0.1992,0.2032,0.2038,0.1967,0.1967,0.1967,0.1968,0,0.2073,0.2039,0.2007,0.1969,0.1949,0.1913,0.1915,0.1902,0.1915,0.192,0.1923,0.1931,0.1938,0.1939,0.1944,0.1959,0.1977,0.1988,0.2,0.1991,0.2033,0.204,0.1964,0.1965,0.1966,0.1966,0,0,0.2034,0.1959,0.1952,0.1928,0.1902,0.1878,0.1851,0.184,0.1843,0.1839,0.1844,0.1847,0.1886,0.1889,0.1913,0.1938,0.1978,0.1961,0.1964,0.2003,0.2065,0.201,0.2013,0.1993,0.1994,0.1995,0.2089,0,0.1969,0.1873,0.1859,0.179,0.1753,0.1774,0.1751,0.1754,0.1769,0.1777,0.1822,0.1832,0.1856,0.1873,0.1902,0.1966,0.1995,0.1951,0.2066,0.2069,0.2024,0.2019,0.1951,0.2022,0.2096,0.2097,0.2098,0,0.1897,0.1845,0.176,0.1724,0.1713,0.1683,0.1687,0.167,0.1701,0.1719,0.1754,0.1795,0.1841,0.1863,0.1966,0.1938,0.1996,0.2043,0.2048,0.2013,0.2027,0.2043,0.2033,0.1861,0.211,0.2109,0.2108,0,0.1876,0.1791,0.1725,0.1706,0.166,0.1647,0.1639,0.1657,0.1659,0.1696,0.1713,0.1777,0.1817,0.1897,0.1988,0.1986,0.2102,0.2115,0.2121,0.2119,0.2091,0.2083,0.193,0.2185,0.2185,0.2185,0.2184,0,0.1826,0.1779,0.171,0.1675,0.1633,0.162,0.16,0.161,0.1628,0.1635,0.169,0.1713,0.1828,0.1903,0.1987,0.207,0.2107,0.2117,0.2135,0.2074,0.2065,0.1938,0.1897,0.2188,0.2187,0.2187,0.2186,0,0.1814,0.1758,0.169,0.163,0.1616,0.1593,0.1573,0.1571,0.1588,0.1602,0.1615,0.1684,0.1777,0.1883,0.2019,0.2062,0.2074,0.2172,0.2087,0.2092,0.1913,0.1875,0.1805,0.1769,0.2195,0.2194,0.2194,0,0.1799,0.1753,0.1668,0.1643,0.1614,0.1579,0.1567,0.1558,0.1558,0.1581,0.1591,0.1668,0.1723,0.1885,0.1985,0.2112,0.2035,0.2097,0.2069,0.1877,0.1851,0.1805,0.1778,0.2034,0.2032,0.203,0.2029,0,0.1793,0.1755,0.1705,0.1652,0.1618,0.1576,0.1553,0.1537,0.1535,0.1536,0.1557,0.1597,0.1723,0.181,0.1944,0.201,0.1941,0.2065,0.1897,0.1724,0.164,0.1623,0.1997,0.2015,0.2016,0.2017,0.2018,0.2019,0.1815,0.1784,0.173,0.1683,0.1643,0.1603,0.1581,0.1545,0.1529,0.1522,0.1534,0.1573,0.1644,0.1819,0.1831,0.1756,0.1845,0.172,0.1702,0.168,0.1587,0.1912,0.192,0.192,0.1921,0.1922,0.1922,0,0.1867,0.1827,0.1777,0.1723,0.1697,0.166,0.1604,0.1576,0.1551,0.1514,0.1514,0.1527,0.1542,0.1556,0.1527,0.1417,0.1391,0.1329,0.1232,0.1238,0.1544,0.1468,0.1339,0.1339,0.1339,0.1339,0.1339,0.1339,0.19,0.1873,0.1832,0.1805,0.1769,0.173,0.1699,0.1622,0.1581,0.1496,0.1464,0.1455,0.1399,0.1224,0.103,0.1004,0.0885,0.0865,0.0852,0.1004,0.1037,0.1069,0.098,0.075,0.075,0.0516,0.0513,0.0511]},{"header":{"parameterUnit":"m.s-1","parameterCategory":2,"la1":30.2991,"la2":30.254,"lo1":-89.0895,"lo2":-89.0444,"dy":0.0017,"dx":0.0017,"nx":28,"ny":28,"refTime":"2025-08-15T03:00:00:Z","depth":"0","parameterNumber":3,"parameterNumberName":"V-component_of_CURRENTS"},"data":[0,0,0,0,0,0,0,0,0,0,0,0,0,0,0,0,0,0,0,0,0,0,0,0,0,0,0,0,0,0,0,0,0,0,0,0,0,0,0,0,0,0,0,0,0,0,0,0,0,0,0,0,0,0,0,0,0,0,0.022,0.0221,0,0.0303,0.0304,0.0305,0.0329,0.0329,0.0328,0.0328,0.0368,0.037,0.0371,0,0,0,0,0,0,0,0,0,0,0,0,0,0.0107,0.0109,0.022,0.0221,0.0222,0.0303,0.0304,0.0305,0.0329,0.0329,0.0328,0.0328,0.0368,0.037,0.0371,0,0,0,0,0,0,0,0,0,0,0,0,0,0.017,0.011,0.022,0.0244,0.0247,0.0302,0.0304,0.0305,0.033,0.0329,0.0328,0.0328,0.0367,0.0369,0.0372,0.0399,0,0,0.0378,0.0379,0,0,0,0,0,0,0,0,0.0166,0.0174,0.0239,0.0242,0.0246,0.0305,0.0279,0.0334,0.033,0.0298,0.0328,0.0327,0.0344,0.0348,0.0366,0.0401,0.0402,0.0379,0.038,0.0381,0.0382,0,0,0,0,0,0,0,0.0162,0.0171,0.0253,0.024,0.0244,0.0259,0.0267,0.029,0.0323,0.0301,0.0303,0.0312,0.0345,0.0364,0.0367,0.0403,0.0379,0.0381,0.0382,0.0383,0.0447,0.0447,0,0,0,0,0,0,0.0151,0.0167,0.025,0.0255,0.0203,0.0261,0.027,0.0287,0.0324,0.0329,0.0313,0.0313,0.036,0.0364,0.0368,0.0406,0.0381,0.0383,0.0384,0.0447,0.0447,0.0447,0,0,0,0,0,0,0.0149,0.0158,0.0247,0.0212,0.0224,0.0264,0.0282,0.0289,0.0307,0.0333,0.0337,0.0323,0.036,0.0365,0.0402,0.0408,0.0384,0.0386,0.0446,0.0447,0.0447,0.048,0,0,0,0,0,0,0.0145,0.0157,0.0167,0.0212,0.0226,0.0285,0.0283,0.0291,0.0313,0.0315,0.0344,0.0347,0.036,0.0399,0.0404,0.041,0.0388,0.0446,0.0446,0.0447,0.0479,0.0482,0.0484,0,0,0,0,0,0.0141,0.0162,0.0167,0.0177,0.0238,0.0286,0.0295,0.032,0.0314,0.0331,0.0354,0.0346,0.0406,0.0402,0.0408,0.0415,0.0445,0.0446,0.0447,0.0477,0.0481,0.0484,0,0,0,0,0,0,0.0119,0.0167,0.0174,0.0208,0.0244,0.029,0.0308,0.032,0.0353,0.0351,0.0367,0.0374,0.0404,0.0406,0.0401,0.0432,0.0418,0.042,0.0438,0.0442,0.0445,0.0432,0.039,0,0,0,0,0,0.0118,0.0144,0.0189,0.0214,0.0232,0.0267,0.0288,0.0307,0.034,0.0354,0.0376,0.0393,0.0413,0.0425,0.0446,0.0473,0.0453,0.0474,0.0477,0.048,0.0472,0.0437,0.0436,0.045,0.045,0.045,0,0,0.0112,0.0144,0.0157,0.0211,0.0238,0.0281,0.0279,0.0315,0.0347,0.0353,0.0401,0.041,0.0424,0.0456,0.0467,0.0458,0.0472,0.0481,0.0483,0.0474,0.0438,0.0436,0.0435,0.0451,0.0451,0.0451,0,0,0.0125,0.0146,0.0176,0.0211,0.0258,0.0286,0.0295,0.0345,0.0362,0.0411,0.0415,0.0427,0.0471,0.0478,0.0485,0.0513,0.049,0.0515,0.0522,0.0489,0.0487,0.0485,0.0484,0.0482,0.0514,0.0514,0.0514,0,0.0109,0.0165,0.0191,0.0235,0.0265,0.0289,0.033,0.036,0.0414,0.0423,0.0428,0.0465,0.0478,0.0497,0.051,0.0519,0.0505,0.0511,0.0491,0.0489,0.0486,0.0486,0.0483,0.0516,0.0516,0.0516,0.0516,0,0.0154,0.0199,0.022,0.0283,0.0318,0.0356,0.0399,0.0427,0.0444,0.0464,0.0485,0.0502,0.0514,0.052,0.0531,0.052,0.052,0.0501,0.0481,0.0487,0.0487,0.0483,0.0518,0.0518,0.0517,0.0517,0,0,0.0108,0.0226,0.0232,0.0274,0.0346,0.0377,0.0426,0.0469,0.0482,0.0515,0.0525,0.0554,0.0537,0.0543,0.0542,0.0519,0.0506,0.0506,0.0503,0.0504,0.0453,0.049,0.0489,0.0478,0.0477,0.0476,0.047,0,0.0129,0.0225,0.0276,0.0352,0.0402,0.0439,0.0478,0.0513,0.0532,0.0548,0.0541,0.0553,0.0553,0.0551,0.0529,0.0513,0.0493,0.0511,0.0448,0.0447,0.0476,0.0484,0.0523,0.0523,0.0466,0.0466,0.0465,0,0.0155,0.0217,0.0301,0.0392,0.0411,0.0449,0.0494,0.0535,0.0555,0.0564,0.0561,0.0557,0.055,0.0532,0.0497,0.0508,0.0481,0.0462,0.046,0.0474,0.0475,0.0503,0.0518,0.0511,0.0459,0.046,0.046,0,0.0121,0.0231,0.0298,0.0332,0.0432,0.0453,0.0491,0.0525,0.0547,0.056,0.0566,0.0553,0.0549,0.0506,0.0494,0.0484,0.0449,0.0425,0.0433,0.0436,0.0447,0.0453,0.0443,0.0375,0.0375,0.0375,0.0375,0,0.0135,0.0187,0.0283,0.032,0.0364,0.0433,0.0461,0.0496,0.0526,0.0541,0.0559,0.0566,0.0536,0.0526,0.0493,0.0473,0.0448,0.0436,0.043,0.0465,0.0472,0.0447,0.0437,0.0375,0.0375,0.0375,0.0375,0,0.0109,0.0182,0.025,0.0338,0.0358,0.0382,0.0446,0.0463,0.0503,0.0522,0.0527,0.0567,0.057,0.0556,0.0506,0.0484,0.0461,0.0443,0.0511,0.0513,0.0507,0.0498,0.046,0.0496,0.044,0.0441,0.0442,0,0.0117,0.0153,0.0236,0.0259,0.0299,0.0343,0.0369,0.0432,0.0453,0.0523,0.0527,0.0561,0.0585,0.0571,0.0551,0.0522,0.0498,0.0523,0.0499,0.0517,0.0501,0.0479,0.051,0.0537,0.0539,0.054,0.0541,0,0.011,0.0131,0.0182,0.0227,0.0258,0.0299,0.0343,0.0359,0.0432,0.0466,0.0517,0.0549,0.0588,0.0613,0.0612,0.058,0.0546,0.0544,0.0528,0.0551,0.0557,0.0587,0.0553,0.0551,0.055,0.0549,0.0548,0.0548,0.0082,0.0104,0.016,0.0202,0.0231,0.0262,0.0288,0.0339,0.0385,0.0473,0.0499,0.0605,0.0663,0.0685,0.064,0.0632,0.0606,0.061,0.0593,0.0564,0.061,0.0621,0.0631,0.0631,0.063,0.063,0.0629,0,0.0059,0.0101,0.0137,0.019,0.0211,0.0236,0.0282,0.032,0.0375,0.0495,0.056,0.0714,0.0743,0.0763,0.0747,0.0695,0.0668,0.0667,0.0635,0.0662,0.0641,0.0659,0.0717,0.0717,0.0717,0.0717,0.0717,0.0717,0.0055,0.009,0.0126,0.0168,0.0195,0.0229,0.0254,0.0319,0.0418,0.0589,0.0742,0.0848,0.0932,0.0777,0.0725,0.0708,0.0696,0.0671,0.0668,0.0639,0.0632,0.0625,0.0639,0.0692,0.0692,0.0714,0.0714,0.0714]}],[{"header":{"parameterUnit":"m.s-1","parameterCategory":2,"la1":30.2991,"la2":30.254,"lo1":-89.0895,"lo2":-89.0444,"dy":0.0017,"dx":0.0017,"nx":28,"ny":28,"refTime":"2025-08-15T03:00:00:Z","depth":"2","parameterNumber":2,"parameterNumberName":"U-component_of_CURRENTS"},"data":[0,0,0,0,0,0,0,0,0,0,0,0,0,0,0,0,0,0,0,0,0,0,0,0,0,0,0,0,0,0,0,0,0,0,0,0,0,0,0,0,0,0,0,0,0,0,0,0,0,0,0,0,0,0,0,0,0,0,0.1433,0.1434,0,0.1489,0.1489,0.149,0.151,0.151,0.151,0.151,0.1556,0.1558,0.1559,0,0,0,0,0,0,0,0,0,0,0,0,0,0.1344,0.1346,0.1433,0.1434,0.1435,0.1489,0.1489,0.149,0.1509,0.151,0.151,0.151,0.1556,0.1557,0.1559,0,0,0,0,0,0,0,0,0,0,0,0,0,0.1387,0.1346,0.1433,0.1453,0.1456,0.1489,0.1489,0.149,0.1509,0.151,0.151,0.151,0.1556,0.1557,0.1559,0.1568,0,0,0.1564,0.1565,0,0,0,0,0,0,0,0,0.1385,0.139,0.1449,0.1452,0.1455,0.1495,0.1475,0.1517,0.1509,0.1486,0.151,0.151,0.1537,0.154,0.1546,0.157,0.1572,0.1565,0.1566,0.1566,0.1567,0,0,0,0,0,0,0,0.1382,0.1388,0.1452,0.145,0.1454,0.146,0.1466,0.1483,0.1508,0.1488,0.149,0.1501,0.1538,0.1545,0.1548,0.1573,0.1565,0.1566,0.1567,0.1568,0.1671,0.1673,0,0,0,0,0,0,0.1381,0.1385,0.145,0.1454,0.1423,0.1462,0.1468,0.148,0.1508,0.1513,0.1501,0.1502,0.1542,0.1546,0.1549,0.1592,0.1566,0.1568,0.1569,0.167,0.1672,0.1674,0,0,0,0,0,0,0.1379,0.1386,0.1448,0.1423,0.1432,0.1464,0.1476,0.1481,0.1501,0.1518,0.1523,0.1518,0.1542,0.1547,0.158,0.1592,0.1569,0.1571,0.1668,0.167,0.1673,0.1657,0,0,0,0,0,0,0.1376,0.1385,0.1398,0.1423,0.1433,0.1478,0.1476,0.1482,0.1508,0.151,0.1534,0.1538,0.1542,0.1578,0.1582,0.1594,0.1572,0.1666,0.1669,0.1672,0.1655,0.1659,0.1661,0,0,0,0,0,0.1372,0.1382,0.1399,0.1407,0.1449,0.148,0.1485,0.1506,0.1509,0.1523,0.1541,0.1538,0.1601,0.158,0.1585,0.1598,0.1664,0.1668,0.1672,0.1654,0.1658,0.1661,0,0,0,0,0,0,0.1346,0.1386,0.1404,0.1426,0.1459,0.1484,0.1498,0.1514,0.1539,0.154,0.1553,0.1558,0.1596,0.1607,0.1583,0.1643,0.1635,0.164,0.162,0.1624,0.1627,0.1615,0.1573,0,0,0,0,0,0.135,0.1369,0.141,0.1428,0.1445,0.1475,0.1492,0.1508,0.1532,0.1543,0.156,0.1585,0.1614,0.1626,0.1653,0.1677,0.1683,0.1695,0.1698,0.17,0.1697,0.1734,0.1739,0.1686,0.1686,0.1686,0,0,0.1341,0.1369,0.1378,0.1425,0.1448,0.1467,0.1485,0.1512,0.1525,0.1544,0.1566,0.1598,0.1627,0.1658,0.1676,0.1666,0.1715,0.1705,0.1706,0.1702,0.1738,0.1743,0.1747,0.1689,0.1688,0.1688,0,0,0.1328,0.1363,0.1374,0.1403,0.1448,0.1468,0.148,0.1516,0.1533,0.1562,0.1585,0.1626,0.1658,0.1685,0.1701,0.1741,0.1735,0.1755,0.1749,0.1785,0.1788,0.1792,0.1783,0.1786,0.1749,0.1749,0.1749,0,0.1317,0.1341,0.1382,0.1401,0.1421,0.1468,0.148,0.1505,0.1547,0.1561,0.1568,0.164,0.1669,0.171,0.1729,0.1745,0.175,0.1725,0.1785,0.1789,0.1793,0.1783,0.1786,0.1749,0.1749,0.1749,0.1749,0,0.1311,0.1337,0.1345,0.1384,0.1411,0.1432,0.1474,0.1501,0.1526,0.155,0.1602,0.1647,0.1687,0.1712,0.1729,0.1778,0.1766,0.1786,0.1765,0.1796,0.1785,0.1788,0.1748,0.1748,0.1749,0.1749,0,0,0.1268,0.1328,0.1332,0.1351,0.1405,0.1424,0.1451,0.1492,0.1512,0.1556,0.1584,0.1649,0.1679,0.1703,0.174,0.1775,0.1806,0.1789,0.1791,0.176,0.1851,0.1677,0.1664,0.1834,0.1835,0.1836,0.1822,0,0.1252,0.1279,0.1314,0.1337,0.1355,0.1404,0.1426,0.1469,0.1508,0.1549,0.1604,0.1645,0.1673,0.1698,0.174,0.18,0.1819,0.1806,0.1843,0.1843,0.167,0.1664,0.1556,0.152,0.1826,0.1826,0.1827,0,0.1235,0.1258,0.1277,0.1323,0.1335,0.1351,0.1401,0.1429,0.1495,0.1524,0.1573,0.162,0.168,0.1705,0.1785,0.1773,0.1809,0.1846,0.1846,0.1692,0.1676,0.1547,0.1515,0.1833,0.1832,0.1832,0.1832,0,0.1192,0.1233,0.1247,0.1263,0.1318,0.133,0.1359,0.1419,0.1442,0.151,0.1525,0.1606,0.1635,0.1707,0.1759,0.1785,0.183,0.1875,0.1745,0.1732,0.1648,0.1624,0.1928,0.1928,0.1928,0.1928,0.1928,0,0.1168,0.1181,0.1227,0.1236,0.1251,0.1298,0.1322,0.1362,0.1414,0.1428,0.1506,0.1508,0.1641,0.1675,0.1744,0.1715,0.1807,0.1725,0.1715,0.1635,0.1611,0.1901,0.1898,0.1927,0.1927,0.1927,0.1928,0,0.1132,0.1161,0.1179,0.1223,0.1234,0.1246,0.1289,0.1307,0.135,0.137,0.1382,0.1442,0.146,0.1551,0.1651,0.165,0.1679,0.165,0.151,0.1481,0.1568,0.1565,0.1514,0.1508,0.1503,0.1498,0.1495,0,0.1124,0.1127,0.1161,0.1167,0.1187,0.1209,0.1223,0.1272,0.1281,0.1301,0.1295,0.1314,0.1301,0.1333,0.1359,0.1394,0.1517,0.1287,0.1313,0.1529,0.1526,0.1532,0.1536,0.1209,0.1203,0.1198,0.1195,0,0.1105,0.1113,0.1126,0.1132,0.1141,0.1154,0.1169,0.1158,0.1195,0.1185,0.1143,0.113,0.1117,0.1065,0.107,0.1097,0.1272,0.1184,0.1475,0.1298,0.1231,0.1231,0.1248,0.1153,0.1157,0.116,0.1162,0.1164,0.109,0.1084,0.1092,0.1093,0.1106,0.1091,0.1075,0.107,0.1044,0.1007,0.1001,0.0917,0.0883,0.0801,0.082,0.0859,0.0946,0.0954,0.0975,0.0999,0.0934,0.0858,0.0696,0.0698,0.0699,0.07,0.0701,0,0.1054,0.1055,0.1053,0.1041,0.1023,0.1066,0.1036,0.0981,0.0914,0.0894,0.0843,0.0626,0.057,0.0591,0.0569,0.0572,0.0665,0.0582,0.0705,0.0742,0.0776,0.0708,0.0406,0.0406,0.0406,0.0406,0,0,0.1037,0.1008,0.0995,0.0956,0.0967,0.092,0.0899,0.0812,0.0768,0.0644,0.0567,0.055,0.0516,0.0414,0.0426,0.0431,0.0616,0.0435,0.0658,0.0839,0.0875,0.0955,0.0883,0,0,0,0,0]},{"header":{"parameterUnit":"m.s-1","parameterCategory":2,"la1":30.2991,"la2":30.254,"lo1":-89.0895,"lo2":-89.0444,"dy":0.0017,"dx":0.0017,"nx":28,"ny":28,"refTime":"2025-08-15T03:00:00:Z","depth":"2","parameterNumber":3,"parameterNumberName":"V-component_of_CURRENTS"},"data":[0,0,0,0,0,0,0,0,0,0,0,0,0,0,0,0,0,0,0,0,0,0,0,0,0,0,0,0,0,0,0,0,0,0,0,0,0,0,0,0,0,0,0,0,0,0,0,0,0,0,0,0,0,0,0,0,0,0,-0.0072,-0.0072,0,-0.0104,-0.0104,-0.0104,-0.0158,-0.0159,-0.016,-0.0161,-0.0236,-0.0237,-0.0238,0,0,0,0,0,0,0,0,0,0,0,0,0,-0.0081,-0.0081,-0.0072,-0.0072,-0.0073,-0.0104,-0.0104,-0.0104,-0.0158,-0.0159,-0.0161,-0.0162,-0.0236,-0.0237,-0.0238,0,0,0,0,0,0,0,0,0,0,0,0,0,-0.0091,-0.008,-0.0072,-0.0103,-0.0107,-0.0103,-0.0104,-0.0104,-0.0158,-0.0159,-0.0161,-0.0162,-0.0235,-0.0237,-0.0238,-0.0218,0,0,-0.0243,-0.0244,0,0,0,0,0,0,0,0,-0.0091,-0.0091,-0.0098,-0.0101,-0.0105,-0.0129,-0.0135,-0.0144,-0.0157,-0.0138,-0.0161,-0.0163,-0.0203,-0.0207,-0.0209,-0.0221,-0.0224,-0.0243,-0.0244,-0.0245,-0.0245,0,0,0,0,0,0,0,-0.009,-0.009,-0.0085,-0.0099,-0.0103,-0.0124,-0.0127,-0.0137,-0.0163,-0.014,-0.0144,-0.0147,-0.0205,-0.0208,-0.0212,-0.0225,-0.0243,-0.0245,-0.0246,-0.0246,-0.0253,-0.0253,0,0,0,0,0,0,-0.0083,-0.0089,-0.0084,-0.0085,-0.0101,-0.0122,-0.0126,-0.0119,-0.0162,-0.0169,-0.0146,-0.015,-0.0204,-0.021,-0.0214,-0.0218,-0.0245,-0.0246,-0.0247,-0.0254,-0.0253,-0.0252,0,0,0,0,0,0,-0.0083,-0.0082,-0.0082,-0.0089,-0.009,-0.012,-0.0113,-0.0119,-0.0147,-0.0166,-0.0174,-0.017,-0.0206,-0.0212,-0.0233,-0.0221,-0.0247,-0.0249,-0.0255,-0.0254,-0.0253,-0.0209,0,0,0,0,0,0,-0.0083,-0.0081,-0.0086,-0.0088,-0.009,-0.0088,-0.0112,-0.0119,-0.0145,-0.0151,-0.0189,-0.0196,-0.0207,-0.023,-0.0234,-0.0223,-0.025,-0.0256,-0.0255,-0.0253,-0.0211,-0.0206,-0.0202,0,0,0,0,0,-0.0083,-0.0072,-0.0086,-0.0086,-0.0091,-0.0088,-0.0091,-0.0117,-0.0145,-0.015,-0.0175,-0.0196,-0.0224,-0.0231,-0.0236,-0.0225,-0.0257,-0.0255,-0.0253,-0.0213,-0.0207,-0.0202,0,0,0,0,0,0,-0.0074,-0.0076,-0.0092,-0.0083,-0.0092,-0.0097,-0.0107,-0.0127,-0.015,-0.0166,-0.019,-0.0198,-0.0208,-0.0223,-0.023,-0.0222,-0.0242,-0.0241,-0.021,-0.0204,-0.02,-0.0186,-0.0251,0,0,0,0,0,-0.0074,-0.0074,-0.0078,-0.0075,-0.0079,-0.01,-0.0109,-0.0125,-0.014,-0.0154,-0.0179,-0.0198,-0.0198,-0.021,-0.0217,-0.0217,-0.0209,-0.0212,-0.0207,-0.0203,-0.0194,-0.016,-0.0151,-0.0247,-0.0247,-0.0247,0,0,-0.0071,-0.0074,-0.0075,-0.0075,-0.0088,-0.0082,-0.0109,-0.0122,-0.0119,-0.0156,-0.0173,-0.0188,-0.0195,-0.019,-0.0196,-0.0206,-0.0173,-0.0201,-0.0198,-0.0191,-0.0157,-0.0147,-0.0139,-0.0246,-0.0246,-0.0246,0,0,-0.0057,-0.0067,-0.0064,-0.0066,-0.0082,-0.0085,-0.0093,-0.0109,-0.0123,-0.0134,-0.0151,-0.0154,-0.0179,-0.0163,-0.0161,-0.0135,-0.0149,-0.015,-0.0117,-0.0083,-0.0075,-0.0067,-0.0047,-0.0038,-0.0148,-0.0148,-0.0148,0,-0.0061,-0.005,-0.0063,-0.0056,-0.0057,-0.0086,-0.0078,-0.0083,-0.0107,-0.0104,-0.0139,-0.0137,-0.0155,-0.0114,-0.0111,-0.0123,-0.0117,-0.0137,-0.0076,-0.0068,-0.0061,-0.0042,-0.0033,-0.0145,-0.0146,-0.0146,-0.0146,0,-0.0037,-0.0037,-0.0033,-0.0034,-0.0032,-0.0031,-0.0034,-0.0042,-0.0069,-0.0071,-0.0062,-0.0075,-0.0074,-0.0074,-0.0091,-0.0044,-0.0061,-0.0073,-0.0088,-0.0049,-0.0032,-0.0023,-0.0142,-0.0143,-0.0144,-0.0144,0,0,-0.0027,-0.002,-0.0025,-0.002,-0.0022,-0.0014,-0.0002,0.0012,0.0027,0.0001,0.0032,0.0025,0.0005,0.0008,-0.0005,0.0021,0.0066,-0.0013,-0.0012,0.0011,0.0128,0.0134,0.0144,0.0059,0.0061,0.0062,0.0119,0,-0.0015,0.0,0.0006,0.0023,0.0031,0.0028,0.0051,0.006,0.0059,0.0081,0.0081,0.009,0.0042,0.0037,0.0059,0.0069,0.0091,0.0051,0.0084,0.0085,0.0089,0.0156,0.0119,0.0168,0.0128,0.013,0.0131,0,-0.0,0.001,0.0022,0.0054,0.0059,0.0064,0.0098,0.0114,0.015,0.015,0.0164,0.0156,0.0186,0.0135,0.0177,0.0148,0.0135,0.0142,0.0144,0.0142,0.0108,0.0123,0.0186,0.0146,0.0144,0.0143,0.0142,0,0.0,0.0024,0.003,0.0037,0.0067,0.0073,0.0087,0.0121,0.0149,0.0183,0.021,0.0235,0.0251,0.0252,0.0241,0.0204,0.0299,0.0253,0.0253,0.0253,0.0227,0.0221,0.0289,0.0289,0.0289,0.0289,0.0289,0,0.0013,0.002,0.0022,0.0025,0.0048,0.0068,0.01,0.0121,0.0172,0.0222,0.0228,0.0288,0.0279,0.0323,0.0292,0.0315,0.0336,0.0282,0.0281,0.024,0.0235,0.0213,0.0204,0.0291,0.029,0.029,0.029,0,0.0007,0.0007,0.0017,0.0034,0.0039,0.0046,0.0091,0.0132,0.0169,0.0239,0.0249,0.0336,0.0396,0.0402,0.0433,0.0391,0.0405,0.0402,0.035,0.0343,0.0315,0.0307,0.0405,0.0406,0.0407,0.0408,0.0409,0,0.0003,0.0001,0.0003,0.0011,0.0008,0.0028,0.0057,0.0105,0.0158,0.0276,0.0326,0.0414,0.0498,0.0566,0.0513,0.0492,0.0472,0.043,0.0356,0.0345,0.0334,0.0324,0.0316,0.0333,0.0333,0.0333,0.0333,0,-0.0001,-0.0019,-0.001,0.0001,0.0013,0.0056,0.0097,0.0144,0.0223,0.0301,0.0433,0.0513,0.058,0.0578,0.0554,0.0522,0.0428,0.0428,0.0462,0.0309,0.0282,0.0269,0.0262,0.0332,0.0333,0.0333,0.0333,0.0333,-0.0019,-0.0016,-0.0015,0.001,0.0029,0.0086,0.0132,0.0205,0.0302,0.0454,0.052,0.0645,0.0605,0.0599,0.0534,0.0447,0.0451,0.0387,0.0385,0.0384,0.0365,0.0341,0.0398,0.0399,0.0399,0.0399,0.04,0,-0.0022,-0.0014,0.0008,0.0048,0.0107,0.0087,0.0174,0.0263,0.0379,0.0525,0.0648,0.0645,0.0638,0.059,0.0436,0.0358,0.0331,0.0344,0.0299,0.03,0.0302,0.0276,0.0287,0.0287,0.0287,0.0286,0,0,-0.0026,0.0001,0.0032,0.0125,0.0144,0.0208,0.0253,0.037,0.049,0.0662,0.0729,0.0828,0.0709,0.0574,0.046,0.0369,0.0365,0.0364,0.046,0.0423,0.0425,0.033,0.0293,0,0,0,0,0]}],[{"header":{"parameterUnit":"m.s-1","parameterCategory":2,"la1":30.2991,"la2":30.254,"lo1":-89.0895,"lo2":-89.0444,"dy":0.0017,"dx":0.0017,"nx":28,"ny":28,"refTime":"2025-08-15T03:00:00:Z","depth":"4","parameterNumber":2,"parameterNumberName":"U-component_of_CURRENTS"},"data":[0,0,0,0,0,0,0,0,0,0,0,0,0,0,0,0,0,0,0,0,0,0,0,0,0,0,0,0,0,0,0,0,0,0,0,0,0,0,0,0,0,0,0,0,0,0,0,0,0,0,0,0,0,0,0,0,0,0,-0.0376,-0.0376,0,-0.0404,-0.0404,-0.0405,-0.041,-0.041,-0.0409,-0.0409,-0.0374,-0.0373,-0.0373,0,0,0,0,0,0,0,0,0,0,0,0,0,-0.0354,-0.0354,-0.0376,-0.0376,-0.0377,-0.0404,-0.0404,-0.0405,-0.041,-0.041,-0.0409,-0.0409,-0.0374,-0.0374,-0.0373,0,0,0,0,0,0,0,0,0,0,0,0,0,-0.0371,-0.0354,-0.0376,-0.0382,-0.0383,-0.0404,-0.0404,-0.0405,-0.041,-0.041,-0.0409,-0.0409,-0.0375,-0.0374,-0.0373,-0.0373,0,0,-0.0369,-0.0369,0,0,0,0,0,0,0,0,-0.037,-0.0372,-0.0381,-0.0382,-0.0383,-0.0403,-0.0384,-0.0391,-0.041,-0.04,-0.0409,-0.0409,-0.0378,-0.0377,-0.0384,-0.0372,-0.037,-0.0369,-0.0369,-0.0368,-0.0368,0,0,0,0,0,0,0,-0.0369,-0.0371,-0.0387,-0.0382,-0.0383,-0.0393,-0.0395,-0.0385,-0.039,-0.0401,-0.0401,-0.0404,-0.0378,-0.0385,-0.0383,-0.037,-0.0369,-0.0368,-0.0368,-0.0367,-0.0281,-0.0279,0,0,0,0,0,0,-0.0364,-0.037,-0.0386,-0.0388,-0.0375,-0.0394,-0.0396,-0.0397,-0.0391,-0.0391,-0.0404,-0.0404,-0.0387,-0.0384,-0.0382,-0.028,-0.0368,-0.0367,-0.0366,-0.0283,-0.0281,-0.0279,0,0,0,0,0,0,-0.0363,-0.0365,-0.0385,-0.0379,-0.0383,-0.0394,-0.0396,-0.0398,-0.039,-0.0395,-0.0393,-0.0393,-0.0387,-0.0383,-0.0344,-0.0282,-0.0367,-0.0366,-0.0285,-0.0282,-0.028,-0.0141,0,0,0,0,0,0,-0.0363,-0.0365,-0.0373,-0.0379,-0.0383,-0.0391,-0.0396,-0.0399,-0.0393,-0.0393,-0.0384,-0.0382,-0.0386,-0.0345,-0.0342,-0.0282,-0.0365,-0.0287,-0.0284,-0.0281,-0.0148,-0.0135,-0.0123,0,0,0,0,0,-0.0362,-0.0372,-0.0373,-0.0376,-0.0391,-0.0391,-0.0394,-0.0401,-0.0393,-0.0392,-0.0367,-0.0381,-0.0324,-0.0342,-0.034,-0.0278,-0.0288,-0.0284,-0.0281,-0.0154,-0.0137,-0.0123,0,0,0,0,0,0,-0.037,-0.0374,-0.0375,-0.0388,-0.0386,-0.0392,-0.0402,-0.0391,-0.0374,-0.0362,-0.036,-0.0355,-0.0297,-0.0316,-0.0337,-0.0248,-0.0309,-0.0304,-0.0213,-0.0198,-0.0185,-0.0211,-0.0364,0,0,0,0,0,-0.0375,-0.0384,-0.0382,-0.0392,-0.0393,-0.0391,-0.0394,-0.0382,-0.0367,-0.036,-0.0324,-0.0303,-0.0285,-0.0264,-0.0251,-0.0203,-0.0288,-0.0164,-0.0152,-0.0141,-0.0162,-0.027,-0.027,-0.0267,-0.0267,-0.0267,0,0,-0.0387,-0.0386,-0.0396,-0.0395,-0.0399,-0.038,-0.0392,-0.0381,-0.0339,-0.0356,-0.0273,-0.0256,-0.0265,-0.0203,-0.0179,-0.0205,-0.0175,-0.0136,-0.0126,-0.0154,-0.0267,-0.0268,-0.0268,-0.0264,-0.0265,-0.0265,0,0,-0.04,-0.0408,-0.0414,-0.0401,-0.0389,-0.0375,-0.0363,-0.0327,-0.0294,-0.0212,-0.0217,-0.0185,-0.0108,-0.0124,-0.0122,-0.0046,-0.011,-0.0004,0.005,-0.0052,-0.0054,-0.0058,-0.0122,-0.0132,0.0009,0.0009,0.0009,0,-0.0413,-0.0408,-0.0416,-0.0401,-0.0381,-0.0364,-0.0336,-0.0304,-0.0238,-0.0209,-0.0164,-0.01,-0.0088,-0.0083,-0.0019,-0.002,-0.0068,0.0002,-0.0038,-0.0044,-0.005,-0.0115,-0.0129,0.0016,0.0015,0.0015,0.0014,0,-0.0411,-0.0404,-0.0404,-0.0371,-0.0351,-0.0325,-0.0273,-0.0215,-0.014,-0.0104,-0.0039,-0.002,0.0005,0.0041,0.006,0.0045,0.0031,-0.0015,-0.008,-0.0042,-0.0112,-0.0129,0.0026,0.0024,0.0022,0.002,0,0,-0.0434,-0.0409,-0.0408,-0.0385,-0.0322,-0.0306,-0.0223,-0.0166,-0.0139,-0.0031,-0.001,0.008,0.0091,0.0089,0.0097,0.0048,0.0016,0.0044,0.0036,-0.0024,-0.0168,-0.0054,-0.0062,-0.0019,-0.0022,-0.0024,-0.0185,0,-0.0425,-0.0402,-0.0375,-0.0326,-0.0302,-0.0243,-0.0184,-0.0122,-0.0058,-0.0025,-0.0004,0.0022,0.0105,0.0124,0.01,0.0012,-0.0025,0.0066,-0.0194,-0.0202,-0.0111,-0.0077,-0.0034,-0.0198,-0.0202,-0.0205,-0.0207,0,-0.041,-0.0397,-0.0359,-0.0303,-0.0289,-0.0239,-0.0162,-0.0111,-0.0074,-0.0029,0.0003,0.0014,0.0002,0.0038,-0.0074,-0.0004,-0.0054,-0.0122,-0.0132,-0.0097,-0.0119,-0.0257,-0.0238,-0.0236,-0.0234,-0.0231,-0.023,0,-0.0419,-0.0374,-0.0344,-0.032,-0.0258,-0.0207,-0.016,-0.0102,-0.0084,-0.0059,-0.0062,-0.0063,-0.0098,-0.0152,-0.0183,-0.0134,-0.0358,-0.0345,-0.0303,-0.0296,-0.0418,-0.0414,-0.0462,-0.0462,-0.0461,-0.0461,-0.0461,0,-0.0393,-0.0379,-0.0342,-0.0328,-0.0286,-0.0219,-0.0184,-0.0138,-0.0122,-0.0125,-0.0077,-0.0093,-0.0145,-0.0233,-0.025,-0.0308,-0.0415,-0.0296,-0.0334,-0.0346,-0.0332,-0.0428,-0.0421,-0.0467,-0.0466,-0.0464,-0.0463,0,-0.0402,-0.0383,-0.0368,-0.0315,-0.0294,-0.0261,-0.0211,-0.0196,-0.0168,-0.0185,-0.0177,-0.0175,-0.0216,-0.0286,-0.0431,-0.0409,-0.0493,-0.0502,-0.0501,-0.0538,-0.0339,-0.0324,-0.0453,-0.045,-0.0448,-0.0446,-0.0445,0,-0.0399,-0.0393,-0.039,-0.0377,-0.0344,-0.0297,-0.0268,-0.0221,-0.0207,-0.0208,-0.0223,-0.0259,-0.0238,-0.0377,-0.0418,-0.0489,-0.0472,-0.054,-0.0401,-0.0316,-0.0342,-0.033,-0.0318,-0.0441,-0.0441,-0.044,-0.0439,0,-0.0404,-0.0424,-0.0423,-0.0403,-0.0367,-0.0348,-0.0293,-0.0297,-0.0242,-0.0261,-0.0233,-0.0223,-0.0285,-0.0312,-0.0391,-0.043,-0.0502,-0.0515,-0.0518,-0.0388,-0.0304,-0.0329,-0.0319,-0.0432,-0.0433,-0.0434,-0.0434,0,-0.0417,-0.0424,-0.0425,-0.0401,-0.0381,-0.0344,-0.0337,-0.028,-0.0266,-0.0244,-0.0243,-0.025,-0.028,-0.0284,-0.035,-0.0372,-0.0324,-0.0328,-0.034,-0.0349,-0.0227,-0.01,-0.0203,0,0,0,0,0,-0.0399,-0.0399,-0.0402,-0.0368,-0.0363,-0.0338,-0.0316,-0.0304,-0.0284,-0.0253,-0.023,-0.0238,-0.023,-0.0247,-0.0239,-0.0287,-0.0345,-0.0278,-0.0362,-0.0389,-0.0398,-0.0257,0,0,0,0,0,0,-0.0372,-0.0382,-0.0396,-0.0347,-0.0319,-0.0284,-0.0271,-0.0267,-0.0237,-0.0229,-0.0232,-0.0221,-0.0235,-0.0232,-0.0234,-0.024,-0.0285,-0.0286,-0.0285,-0.0384,-0.0392,-0.0399,-0.0257,0,0,0,0,0]},{"header":{"parameterUnit":"m.s-1","parameterCategory":2,"la1":30.2991,"la2":30.254,"lo1":-89.0895,"lo2":-89.0444,"dy":0.0017,"dx":0.0017,"nx":28,"ny":28,"refTime":"2025-08-15T03:00:00:Z","depth":"4","parameterNumber":3,"parameterNumberName":"V-component_of_CURRENTS"},"data":[0,0,0,0,0,0,0,0,0,0,0,0,0,0,0,0,0,0,0,0,0,0,0,0,0,0,0,0,0,0,0,0,0,0,0,0,0,0,0,0,0,0,0,0,0,0,0,0,0,0,0,0,0,0,0,0,0,0,0.0218,0.0218,0,0.0252,0.0252,0.0253,0.0333,0.0335,0.0336,0.0337,0.03,0.0298,0.0295,0,0,0,0,0,0,0,0,0,0,0,0,0,0.0209,0.0209,0.0218,0.0218,0.0218,0.0252,0.0252,0.0253,0.0333,0.0335,0.0336,0.0338,0.03,0.0298,0.0295,0,0,0,0,0,0,0,0,0,0,0,0,0,0.0229,0.021,0.0218,0.0258,0.0262,0.0251,0.0253,0.0254,0.0333,0.0335,0.0337,0.0338,0.0301,0.0298,0.0295,0.0237,0,0,0.0285,0.0284,0,0,0,0,0,0,0,0,0.0228,0.023,0.0252,0.0255,0.0259,0.0286,0.0236,0.0243,0.0332,0.0311,0.0337,0.0339,0.0284,0.0282,0.0292,0.0235,0.0234,0.0285,0.0283,0.0281,0.028,0,0,0,0,0,0,0,0.0227,0.0229,0.0236,0.0252,0.0256,0.027,0.0276,0.0238,0.0288,0.0313,0.0318,0.0314,0.0287,0.0295,0.0291,0.0233,0.0285,0.0282,0.028,0.0279,0.0148,0.0147,0,0,0,0,0,0,0.0212,0.0227,0.0234,0.0236,0.0243,0.0269,0.0275,0.0279,0.0291,0.0294,0.0312,0.0317,0.03,0.0295,0.029,0.0257,0.0281,0.0278,0.0276,0.015,0.0148,0.0146,0,0,0,0,0,0,0.0212,0.0212,0.0233,0.0229,0.0232,0.0266,0.0271,0.0279,0.0326,0.029,0.0293,0.0354,0.0301,0.0295,0.0264,0.0254,0.0277,0.0274,0.0152,0.0149,0.0147,0.0166,0,0,0,0,0,0,0.0212,0.0212,0.0228,0.0228,0.0231,0.0243,0.0269,0.0278,0.0315,0.0324,0.0325,0.0322,0.0302,0.0269,0.0261,0.025,0.0271,0.0154,0.0151,0.0148,0.0168,0.0165,0.0163,0,0,0,0,0,0.0211,0.0217,0.0229,0.023,0.0246,0.0242,0.0247,0.028,0.0316,0.0332,0.0321,0.0324,0.0245,0.0265,0.0256,0.0244,0.0155,0.0151,0.0148,0.0169,0.0166,0.0163,0,0,0,0,0,0,0.0223,0.0225,0.0238,0.0247,0.0251,0.0255,0.0282,0.0297,0.0307,0.0329,0.0304,0.0298,0.0263,0.0245,0.0267,0.0195,0.02,0.0195,0.0219,0.0216,0.0213,0.0234,0.0269,0,0,0,0,0,0.0228,0.024,0.0236,0.0247,0.026,0.0279,0.0291,0.0309,0.0306,0.0319,0.0304,0.028,0.0234,0.0223,0.0182,0.0146,0.0145,0.0131,0.0128,0.0127,0.0134,0.0095,0.0091,0.0135,0.0135,0.0135,0,0,0.0237,0.0239,0.0248,0.0252,0.0274,0.0271,0.0295,0.0324,0.0314,0.0305,0.0301,0.0271,0.022,0.0175,0.0159,0.0168,0.0118,0.0122,0.0122,0.013,0.0092,0.0088,0.0084,0.0133,0.0133,0.0134,0,0,0.0248,0.0268,0.0284,0.0283,0.0304,0.0299,0.0312,0.0323,0.0336,0.0313,0.0291,0.0256,0.0209,0.0159,0.0128,0.0084,0.0101,0.008,0.0093,0.0055,0.0052,0.0049,0.0075,0.0074,0.0086,0.0086,0.0086,0,0.0259,0.0271,0.0287,0.0292,0.029,0.0312,0.0315,0.0313,0.0303,0.0294,0.0317,0.0225,0.0193,0.0111,0.0106,0.008,0.0092,0.0114,0.0055,0.0052,0.0049,0.0076,0.0075,0.0086,0.0086,0.0086,0.0086,0,0.0263,0.0283,0.0296,0.0301,0.0298,0.031,0.0294,0.0298,0.0314,0.0296,0.0249,0.02,0.0156,0.0126,0.0111,0.0058,0.0087,0.0055,0.0072,0.0046,0.0076,0.0074,0.0087,0.0087,0.0087,0.0087,0,0,0.0266,0.0294,0.0305,0.0312,0.0307,0.0303,0.0287,0.0265,0.0258,0.0242,0.021,0.0142,0.0149,0.0114,0.008,0.0047,0.0047,0.0062,0.006,0.0108,0.0025,0.0002,-0.0001,0.0017,0.0015,0.0015,0.0069,0,0.0273,0.0291,0.029,0.0294,0.0304,0.0297,0.0274,0.0252,0.0238,0.0205,0.016,0.0125,0.0132,0.0128,0.0093,0.0036,0.004,0.004,0.0027,0.0028,0.0024,-0.0007,0.0011,0.0068,0.0068,0.0067,0.0067,0,0.0271,0.0288,0.0313,0.0303,0.0308,0.0313,0.029,0.0267,0.0217,0.021,0.0176,0.0143,0.0092,0.0105,0.0047,0.0056,0.0068,0.0036,0.0036,0.0005,-0.0001,0.0087,0.0065,0.0065,0.0065,0.0065,0.0066,0,0.0274,0.0287,0.0316,0.0314,0.0314,0.0335,0.0332,0.0295,0.0267,0.0233,0.0207,0.0149,0.0118,0.0099,0.0071,0.0072,0.001,-0.0008,-0.0009,-0.0008,-0.0005,-0.0003,-0.002,-0.002,-0.002,-0.002,-0.002,0,0.0258,0.0278,0.0342,0.0363,0.0382,0.0377,0.0383,0.0366,0.0324,0.0258,0.0241,0.0158,0.0115,0.0066,0.007,0.0029,0.0025,-0.0003,-0.0013,0.0006,0.0008,-0.0003,-0.0002,-0.0018,-0.0018,-0.0019,-0.0019,0,0.0244,0.0291,0.0324,0.0376,0.0399,0.0421,0.0426,0.0402,0.0387,0.0297,0.029,0.0173,0.0097,0.0073,0.0012,0.0015,-0.0014,-0.001,0.0058,0.0051,0.0009,0.001,-0.0013,-0.0014,-0.0015,-0.0015,-0.0016,0,0.0228,0.0262,0.0352,0.0386,0.0429,0.0466,0.0473,0.0456,0.0401,0.0271,0.0199,0.0115,0.004,-0.0017,-0.0064,-0.0035,-0.0038,0.0003,-0.0033,0.0007,0.0001,0.0003,0.0006,-0.0017,-0.0017,-0.0017,-0.0017,0,0.0195,0.0262,0.0295,0.0389,0.0437,0.0441,0.0447,0.0415,0.0339,0.0296,0.0153,0.0095,-0.0013,-0.0066,-0.0024,-0.0025,-0.001,-0.0004,-0.0003,-0.0037,0.0003,-0.0002,0.0001,-0.002,-0.0019,-0.0019,-0.0019,0,0.0173,0.0199,0.0291,0.0368,0.0414,0.0434,0.0426,0.037,0.0332,0.0197,0.0124,0.0032,-0.0042,-0.0067,-0.0065,-0.0037,-0.0048,-0.0007,-0.0006,-0.0003,-0.0038,0.0012,-0.0017,0,0,0,0,0,0.0155,0.0215,0.0261,0.0357,0.0399,0.0444,0.0402,0.0371,0.0286,0.0205,0.0185,0.0092,0.0031,-0.0038,-0.0011,-0.0096,-0.0047,-0.0066,0.0003,-0.0032,-0.0029,-0.0077,0,0,0,0,0,0,0.0148,0.0202,0.0258,0.035,0.0416,0.0447,0.0433,0.0363,0.0315,0.0228,0.0199,0.0137,0.0082,0.0057,0.0012,-0.0002,0.0051,-0.0111,-0.011,-0.0033,-0.0031,-0.0029,-0.0077,0,0,0,0,0]}]]